Powrót do katalogu

COSMOS 1087

AktywnyMilitariaLEO
NORAD 11302·PAYLOAD·🇷🇺 Russia

Wystrzelony Mar 15, 1979 z Plesetsk Cosmodrome

Loading…

Następne Przeloty (najbliższe 24 godziny)

TLE

ŚwieżeSource: Space-Track

Epoka: Sep 14, 2026, 05:03 UTC

1 11302U 79024G   26257.21071547  .00000014  00000-0  21016-3 0  9996
2 11302  74.0346 163.6528 0036674  98.0553  56.0789 12.42879411155094

Śledź COSMOS 1087 w czasie rzeczywistym z AllMySat

Download on the App Store